Home > Weather > Hollywood > Past weeks

Flag for USA Past Weather in Hollywood, California, USA — Yesterday and Last 2 Weeks

Now
89 °F

Sunny.


Feels Like: 87 °F
Forecast: 67 / 87 °F
Wind: 8 mph from Southeast

Location: Bob Hope Airport

Current Time: Jul 27, 2016 at 12:22:34 PM

Latest Report: Jul 27, 2016 at 11:53 AM


Visibility: 10 mi

Pressure: 29.88 "Hg

Humidity: 31%

Dew Point: 55 °F

Location of HollywoodLocation

Past Weather in Hollywood — Graph

°F

Hollywood Temperature Yesterday

Maximum temperature yesterday: 95 °F (at 2:53 PM)
Minimum temperature yesterday: 73 °F (at 2:53 AM)
Average temperature yesterday: 82 °F

High & Low Weather Summary for the Past Weeks

 TemperatureHumidityPressure
High101 °F (Jul 22, 2:53 PM)93% (Jul 14, 6:53 AM)30.00 "Hg (Jul 14, 6:53 AM)
Low61 °F (Jul 17, 5:53 AM)11% (Jul 21, 2:53 PM)29.75 "Hg (Jul 23, 1:53 PM)
Average78 °F51%29.88 "Hg
* Reported Jul 12 10:53 AM — Jul 27 10:53 AM, Hollywood, Weather by CustomWeather, © 2016

Note: Actual official high and low records may vary slightly from our data, if they occured in-between our weather recording intervals... More about our weather records

Advertising

Hollywood Weather History for the Previous 24 Hours

Scroll right to see more
 ConditionsComfort  
Time TempWeatherWind HumidityBarometerVisibility
10:53 AM
Wed, Jul 27
89 °FSunny.7 mph27%29.89 "Hg10 mi
9:53 AM85 °FSunny.No wind30%29.88 "Hg10 mi
8:53 AM80 °FSunny.No wind45%29.88 "Hg10 mi
7:53 AM76 °FSunny.No wind54%29.88 "Hg10 mi
6:53 AM74 °FClear.No wind57%29.87 "Hg10 mi
5:53 AM72 °FClear.No wind66%29.85 "Hg10 mi
4:53 AM72 °FClear.5 mph71%29.84 "Hg10 mi
3:53 AM74 °FClear.No wind64%29.83 "Hg10 mi
2:53 AM74 °FClear.3 mph60%29.82 "Hg10 mi
1:53 AM74 °FClear.No wind60%29.83 "Hg10 mi
12:53 AM74 °FClear.3 mph67%29.84 "Hg10 mi
11:53 PM
Tue, Jul 26
75 °FClear.6 mph64%29.84 "Hg10 mi
10:53 PM74 °FClear.6 mph67%29.84 "Hg10 mi
9:53 PM76 °FClear.10 mph56%29.84 "Hg10 mi
8:53 PM79 °FSunny.9 mph45%29.82 "Hg10 mi
7:53 PM83 °FSunny.9 mph27%29.80 "Hg10 mi
6:53 PM88 °FSunny.9 mph27%29.78 "Hg10 mi
5:53 PM90 °FSunny.9 mph28%29.78 "Hg10 mi
4:53 PM94 °FSunny.10 mph23%29.77 "Hg10 mi
3:53 PM95 °FSunny.10 mph19%29.78 "Hg10 mi
2:53 PM95 °FSunny.13 mph19%29.80 "Hg10 mi
1:53 PM93 °FSunny.12 mph22%29.82 "Hg10 mi
12:53 PM91 °FSunny.9 mph28%29.84 "Hg10 mi
Weather by CustomWeather, © 2016

See weather overviewHow to use our weather pages